Вернуться в каталог

DELTA 1 DEB

АктивенLEO
NORAD 10206·DEBRIS·🇺🇸 United States

Запущен Jul 14, 1977 с Cape Canaveral Space Force Station

Loading…

Ближайшие Пролёты (ближайшие 24 часа)

TLE

СвежийSource: Space-Track

Эпоха: Sep 14, 2026, 10:36 UTC

1 10206U 77065AK  26257.44212832  .00000745  00000-0  51376-3 0  9993
2 10206  29.2046 172.5715 0524849 177.7727 182.5318 13.42377719326656

Отслеживайте DELTA 1 DEB в реальном времени с AllMySat

Download on the App Store